User: anonymous   Login
Location: Unspecified
(0.0000°N, 0.0000°E)
Time: 05:12:10
(UTC+01:00)
Language:

NOSS 2-2 (E) - Orbit

View from above orbital plane
View from above orbital plane
View from above satellite
View from above satellite

Ground track
Ground track

The orbit data is extracted from the following two-line orbital elements,

1 21809U 91076E   17333.17812062 0.00000060  00000-0  18000-4 0    09
2 21809  63.3460  32.1877 0762000  24.1218 335.8782 13.41379048    01
Epoch (UTC): 29 November 2017 04:16:29
Eccentricity: 0.0762000
inclination: 63.3460°
perigee height: 534 km
apogee height: 1674 km
right ascension of ascending node: 32.1877°
argument of perigee: 24.1218°
revolutions per day: 13.41379048
mean anomaly at epoch: 335.8782°
orbit number at epoch: 0

The dashed part of the orbit path shows where the satellite is in the earth's shadow,  

DLR